map of SHJ home
Great Circle Mapper logo
SHJ - Airport
Location
City:  Sharjah, United Arab Emirates
Name:Sharjah International Airport
ICAO / IATA:OMSJ / SHJ

Details
Type:Airport (Aerodrome, Airfield)
Use:Public/Civil, Military, International (customs port of entry)
Latitude:2519'43"N (25.328575)
Longitude:5531'02"E (55.517150)
Datum:WGS 1984
Elevation:111 ft (34 m)
Variation:1.93E (WMM2015 magnetic declination)
0.05 annual change
Runways:1
Longest:13320 × 148 ft (4060 × 45 m), paved

Time
Time Zone:UTC+4
Local Time:

Weather
METAR:OMSJ 052300Z 11003KT CAVOK 31/14 Q0998
TAF:OMSJ 051651Z 0518/0624 VRB02KT CAVOK
BECMG 0607/0609 32013KT
BECMG 0615/0617 VRB02KT

Related Locations
Nearby:
Farthest:GMR: 11772 mi / 18945 km
Mangareva [Totegegie], Gambier Islands, PF

Find:

   beyond  
but within

Other Information
Maps:
NOTAMs:
Links:
Sources:

  
flag of United Arab Emirates   

Sectional Chart

Flight Planning
at skyvector.com

Satellite Image

Google Maps Satellite view

 

Copyright © 2004-2015 Karl L. Swartz. All rights reserved.
The Great Circle Mapper name and logo are trademarks of the Great Circle Mapper.
All other trademarks mentioned herein belong to their respective owners.
Please see credits for attibutions and further copyright information.

  Follow gcmap on Facebook Follow gcmap on Twitter Follow gcmap on Google+

hCard Microformat

Geo Microformat